Theta_e
311 310 308 308 310 310 309 307 306 305 305 306 306 306 307 307 307 307 307 307 307 307 308 307 308 309 310 311 312 314 314 314 317 320 324 322 316 315 314 312 312 311 313 315 316 317 316 317 316 315 317 318 321 324 323 323 323 324 326 321 318 320 319 319 321 320 320 319 318 317 317 318 317 317 317 316 316 316 315 314 313 312 312 311 311 312 312 313
310 309 306 307 310 310 309 307 306 306 306 306 306 307 307 307 307 307 307 308 308 308 308 309 309 310 312 313 314 316 315 316 320 322 320 317 315 314 313 311 312 312 314 317 317 317 316 316 316 315 317 319 321 322 323 323 322 324 326 321 319 322 321 320 319 319 320 319 318 318 317 317 318 317 316 316 317 317 315 314 315 313 312 312 311 312 312 312
311 310 308 306 309 310 309 308 308 307 307 306 306 307 308 307 307 307 308 309 309 308 308 310 310 312 314 314 316 316 317 321 323 322 317 314 315 313 312 311 312 312 314 316 315 315 316 315 315 315 316 318 319 320 323 323 322 322 323 322 320 321 320 319 319 318 318 319 318 318 317 317 317 318 316 316 317 317 316 315 316 316 314 312 311 312 312 313
313 312 311 309 309 309 308 308 309 309 308 307 306 307 308 308 309 308 308 309 310 309 310 311 312 315 314 315 317 314 321 327 324 320 317 315 314 312 312 312 313 313 314 315 315 315 315 316 316 315 316 317 317 318 321 321 322 322 321 321 319 318 319 317 318 317 317 317 317 318 317 316 317 317 316 316 317 317 316 315 315 315 313 312 311 311 312 312
312 312 312 312 311 311 309 308 309 309 309 308 307 308 309 309 310 310 309 309 310 311 312 312 314 315 315 316 315 316 326 327 318 318 316 314 313 312 313 313 314 314 315 316 315 316 316 316 316 316 316 317 319 318 319 319 320 321 319 319 318 318 319 317 317 317 317 316 317 317 316 316 317 316 316 316 317 317 314 312 312 312 311 311 311 311 312 312
312 312 311 311 311 312 310 309 309 309 309 309 309 308 309 310 310 311 311 310 311 312 313 314 315 315 315 316 313 318 329 322 315 318 314 313 313 312 313 313 314 314 315 316 316 316 317 316 316 317 317 316 318 318 318 318 318 320 319 318 318 318 318 317 317 316 316 316 316 316 316 316 317 316 316 317 317 314 311 311 310 310 310 310 310 311 311 311
311 311 310 310 310 310 310 309 309 310 310 309 309 310 310 310 310 310 311 311 312 313 314 315 315 315 315 315 317 323 327 320 317 317 314 315 313 312 313 313 314 314 316 317 317 317 317 316 316 317 317 316 317 316 317 317 317 320 319 318 317 317 317 317 317 316 315 316 316 316 316 316 316 316 316 317 314 310 309 309 309 309 310 310 310 310 310 310
311 310 309 309 309 309 309 309 310 310 310 309 309 309 310 310 309 311 312 312 314 314 315 315 314 316 314 315 323 326 324 323 318 314 315 315 313 314 313 313 314 314 317 316 316 317 316 316 316 315 316 316 316 316 316 317 318 319 319 318 317 316 317 317 317 316 315 315 316 316 315 316 316 315 316 315 311 309 309 309 309 309 309 309 310 309 309 310
311 311 311 309 309 309 309 309 309 309 309 309 309 309 309 309 309 311 313 313 314 315 315 315 314 315 313 316 324 322 321 323 318 315 316 315 317 316 315 317 315 314 317 316 316 317 316 317 316 315 316 317 316 316 317 317 318 318 318 317 317 317 317 317 316 316 316 316 316 316 315 316 315 315 315 314 310 309 309 309 309 309 309 309 309 309 309 309
310 310 311 311 311 311 310 308 307 308 308 308 309 309 309 309 310 312 313 314 315 315 315 315 315 314 316 322 324 320 320 320 319 319 318 317 319 317 317 318 316 316 316 316 317 317 317 317 317 316 316 317 316 316 317 316 317 317 317 317 317 317 318 318 317 317 317 316 316 315 316 316 314 315 316 313 309 309 309 309 309 309 309 309 309 309 309 309
310 309 310 311 312 312 311 310 308 306 307 308 308 308 309 309 311 313 314 315 314 315 315 315 315 314 317 322 320 320 322 320 320 320 319 319 318 316 317 316 314 317 317 316 317 317 317 317 316 316 316 316 316 317 317 315 316 316 316 317 318 318 318 318 317 317 317 316 316 315 315 315 313 314 316 312 309 309 309 309 309 310 309 309 309 309 308 308
311 310 310 311 312 313 312 311 310 309 307 308 309 308 309 310 312 314 315 315 315 315 316 316 315 314 318 320 318 321 323 320 320 320 319 319 318 317 317 314 314 317 318 318 319 317 316 316 316 316 316 316 317 318 316 315 316 316 316 317 318 319 318 319 318 318 317 315 315 315 316 316 314 314 314 311 309 310 310 310 310 310 309 309 309 309 308 308
312 310 310 311 312 313 313 312 311 311 310 310 310 310 310 311 313 315 315 316 316 316 316 317 315 315 319 320 318 320 320 320 320 319 319 318 317 317 316 315 313 314 316 318 320 317 314 315 316 316 316 317 317 317 316 315 316 317 317 317 319 320 319 320 318 316 316 315 314 315 318 319 316 314 311 310 310 310 311 310 310 310 309 309 309 309 309 308
312 311 310 310 311 312 313 312 312 312 312 311 311 311 311 313 315 316 316 317 317 317 317 317 315 317 319 318 317 318 318 319 319 318 317 317 318 316 315 315 314 314 314 316 318 315 313 315 316 316 316 316 316 315 315 316 317 317 318 319 320 320 320 319 317 316 315 315 314 315 318 319 315 312 310 310 310 310 311 311 310 310 309 309 309 309 309 307
313 312 311 310 311 313 313 312 311 311 311 311 312 311 312 315 316 317 317 317 317 317 317 316 315 319 320 317 317 316 316 318 318 318 317 318 319 317 316 316 315 314 314 315 315 313 314 315 316 317 315 315 316 316 318 320 318 318 319 321 322 321 320 318 316 316 316 314 313 315 318 319 315 312 311 310 310 311 312 312 311 310 309 309 309 309 308 307
313 313 312 311 311 313 313 312 310 311 311 311 312 312 314 317 318 318 318 317 317 315 317 320 317 317 319 318 318 316 317 318 319 319 317 318 320 318 317 316 315 315 314 314 313 314 316 316 318 319 317 316 317 319 320 321 321 321 321 321 322 322 320 318 317 317 317 314 313 316 318 318 316 313 311 310 311 311 312 313 311 310 309 309 309 309 308 307
314 313 312 312 311 312 313 312 311 312 312 310 311 314 317 318 318 317 317 316 316 315 316 320 318 316 317 316 317 318 319 320 320 319 316 316 319 318 316 316 316 315 315 315 315 315 316 316 318 319 318 317 318 321 322 323 323 323 322 322 322 322 320 318 318 317 317 316 315 315 316 317 317 314 311 311 311 311 312 313 312 311 310 309 309 309 308 308
314 314 313 312 311 313 315 313 312 312 312 311 312 316 318 318 317 317 318 316 316 317 316 317 317 317 317 316 317 319 320 320 320 319 316 316 317 317 317 316 316 316 316 316 316 316 317 318 318 319 320 319 319 321 324 325 323 321 322 322 322 322 321 320 319 318 317 317 316 317 316 317 318 314 311 310 310 311 311 313 313 311 310 310 309 309 309 309
315 315 314 313 312 313 314 313 313 313 312 313 314 317 318 317 317 318 320 319 318 319 317 318 318 317 317 318 318 319 320 319 318 318 316 315 316 317 317 316 317 317 317 318 318 317 318 320 321 322 322 321 319 320 322 324 322 321 322 322 322 321 320 321 319 317 317 317 317 319 318 318 319 316 312 311 311 311 311 313 314 312 310 310 309 309 310 310
315 315 314 314 313 313 313 313 314 313 313 315 318 320 320 320 321 320 320 320 319 318 316 318 317 316 318 319 318 317 317 317 318 318 316 315 316 316 316 316 318 318 318 321 321 318 319 322 324 324 322 321 321 320 320 321 321 321 322 323 322 320 320 321 319 317 316 319 319 320 321 320 321 319 314 312 311 312 312 313 314 312 311 310 310 309 310 309
316 315 315 314 313 312 312 313 315 314 313 316 318 321 321 321 321 319 319 321 320 318 318 318 317 317 318 319 317 316 317 316 317 319 316 315 316 316 317 317 318 319 319 321 321 319 320 324 324 322 321 320 321 321 320 321 321 321 322 322 322 321 321 321 319 317 316 320 320 320 322 320 321 322 317 313 312 312 312 313 314 312 311 310 310 310 309 307
316 316 315 315 313 312 313 314 315 314 314 316 318 321 322 320 317 316 317 321 321 320 319 318 318 318 318 318 316 317 319 317 317 320 317 316 318 317 317 317 318 320 320 321 322 322 323 323 321 320 321 321 321 321 321 322 322 322 322 322 323 322 322 322 318 316 316 319 321 320 321 320 320 321 319 314 312 312 312 313 313 312 311 310 310 310 308 306
317 316 315 315 313 313 314 315 316 314 314 317 318 320 320 318 315 316 318 320 321 321 320 319 318 317 317 317 316 317 319 318 319 321 318 316 318 318 318 317 318 320 320 321 322 324 325 322 320 320 320 321 321 320 321 321 322 323 322 322 323 322 323 323 318 316 316 317 319 320 320 319 319 320 320 316 313 313 314 314 315 314 312 311 310 309 308 306
317 316 316 315 313 313 315 316 316 314 314 316 317 319 320 318 316 318 321 321 319 320 321 320 319 319 318 317 316 317 318 317 319 320 317 316 317 318 319 317 318 320 320 320 320 323 323 321 320 320 320 321 321 321 322 321 321 324 324 323 323 323 323 324 321 319 318 317 318 319 321 322 320 320 321 318 316 316 315 315 316 315 313 312 312 310 308 306
317 317 316 315 314 314 314 316 316 314 315 316 317 318 319 319 317 318 322 321 318 321 323 322 322 321 319 317 316 316 317 317 319 320 316 317 318 318 319 318 318 319 320 320 320 321 321 320 322 323 322 322 323 323 324 324 321 323 325 323 322 323 323 325 325 323 324 325 321 319 327 330 325 323 322 319 317 316 313 312 313 312 312 312 311 310 308 307
317 317 316 315 314 314 315 316 316 315 316 316 317 317 317 318 318 317 320 319 317 321 324 323 322 321 320 317 316 317 318 318 319 319 316 317 318 318 319 318 318 319 320 320 321 321 320 319 322 324 324 325 325 324 325 325 322 322 328 328 323 322 324 326 326 326 329 329 322 320 329 330 325 324 324 319 316 315 313 312 312 310 310 310 309 308 308 307
317 317 317 315 313 314 316 317 316 316 317 317 317 317 316 318 317 316 320 319 318 322 324 321 319 319 319 317 316 318 319 319 319 318 316 317 318 317 318 319 319 318 317 320 323 323 320 319 323 325 325 327 325 323 324 324 323 326 329 330 325 322 325 326 325 328 329 327 324 322 325 327 325 324 322 319 316 315 314 312 311 310 309 308 308 307 307 307
317 317 317 315 313 315 316 317 317 317 318 317 317 317 317 317 316 319 322 320 321 324 323 319 316 317 319 317 317 318 317 319 321 318 314 315 316 317 318 318 319 319 317 321 325 324 322 322 325 326 325 326 324 323 327 324 323 327 327 326 326 325 326 325 326 328 327 326 327 325 324 328 327 324 322 320 318 317 315 313 311 309 309 308 307 306 306 306
318 317 317 314 313 314 316 317 318 318 318 317 317 318 317 316 316 322 322 318 322 325 321 319 317 317 319 317 317 318 316 317 319 316 313 314 315 315 317 318 318 319 319 319 323 326 324 319 321 325 324 324 323 325 330 327 324 325 326 325 325 325 324 324 325 326 326 326 327 326 325 328 328 326 324 321 320 320 317 315 312 309 309 308 307 306 305 304
318 318 317 315 314 315 316 317 318 318 318 316 317 318 317 317 318 321 323 321 322 323 318 318 320 319 319 319 318 318 317 316 315 314 314 315 315 314 315 317 317 319 322 321 321 323 319 314 316 322 321 320 321 321 322 326 326 324 325 325 324 323 323 323 323 324 326 327 327 326 325 326 329 329 325 323 322 320 319 318 314 310 310 308 306 306 304 303
318 318 317 315 314 315 316 317 318 318 318 316 317 317 318 321 320 319 321 319 317 321 318 317 320 320 319 321 321 319 317 316 314 315 316 315 315 315 316 318 319 320 323 324 323 320 317 318 320 320 318 317 320 320 318 319 322 323 324 325 325 324 323 322 322 323 326 328 326 325 324 325 328 328 324 323 322 320 321 319 315 311 309 307 307 305 304 303
319 319 318 315 314 315 317 318 317 318 318 316 316 318 319 323 324 322 319 313 312 320 321 320 320 320 320 322 323 320 319 318 316 316 317 316 317 316 317 320 320 323 325 323 323 323 321 321 322 321 319 317 322 324 319 317 320 323 324 326 328 327 326 327 326 325 327 327 322 322 324 326 326 324 322 322 320 319 320 318 313 310 309 307 306 305 303 303
320 319 318 315 314 316 317 317 318 318 318 316 317 320 322 322 323 323 318 312 316 323 323 321 321 320 320 323 324 321 321 320 317 317 318 318 319 318 318 320 320 324 327 324 323 326 326 323 322 321 319 318 321 322 322 321 320 321 323 326 329 330 330 331 330 328 330 326 318 318 325 328 326 324 323 322 319 317 317 316 312 310 308 307 306 304 303 303
320 320 318 316 315 315 316 317 318 318 317 317 318 322 324 321 319 320 318 315 319 324 322 321 322 321 321 324 324 321 322 322 317 317 320 319 320 320 319 319 319 322 324 325 325 326 328 330 325 321 320 319 319 320 323 322 319 319 321 324 327 329 331 333 332 332 332 326 318 318 326 330 328 325 322 317 315 313 313 314 313 310 309 307 306 304 303 302
320 319 318 317 315 316 316 317 318 318 317 318 321 323 323 319 317 318 318 316 319 323 322 322 323 323 324 324 323 321 323 323 319 319 322 321 321 321 320 319 319 320 323 325 327 325 327 331 326 321 321 319 318 319 320 322 320 320 321 323 326 327 328 330 330 326 325 324 322 321 326 326 322 322 317 311 312 312 311 312 312 310 309 307 305 304 303 302
319 318 317 317 316 316 317 317 318 318 317 319 322 323 321 318 315 316 316 315 319 323 323 324 325 325 326 325 323 322 321 322 321 321 322 322 321 322 321 320 319 319 322 324 328 328 328 330 325 320 319 317 318 321 320 323 324 322 323 324 325 326 325 328 329 323 321 326 326 324 324 322 318 320 317 312 313 311 310 311 310 309 308 306 305 304 302 302
317 317 317 317 317 316 317 318 318 317 318 320 322 323 320 317 314 315 316 315 319 323 323 324 325 326 327 326 325 323 322 323 321 321 322 322 322 322 322 323 320 319 321 322 327 330 330 329 323 320 320 317 317 321 321 322 323 323 325 324 323 326 325 325 328 327 326 329 328 325 325 323 321 322 319 315 314 312 310 310 310 308 307 306 305 304 303 302
317 317 317 317 317 317 317 318 317 316 318 321 321 321 320 319 315 314 316 316 319 323 322 322 323 325 326 327 326 323 322 324 321 321 324 322 323 323 321 323 322 319 320 321 326 329 328 329 323 319 320 317 315 319 322 322 321 320 322 322 323 328 327 325 326 329 330 330 329 327 326 324 323 322 320 317 316 314 311 309 310 309 307 306 305 304 303 302
318 318 319 318 317 317 317 317 316 316 319 322 320 320 321 320 318 316 317 317 319 322 322 321 322 324 324 325 326 323 321 323 321 321 324 323 323 324 321 322 324 321 320 320 324 326 326 329 326 317 316 316 315 319 324 323 320 316 317 320 322 324 325 326 325 326 330 330 328 329 327 326 324 322 322 320 316 314 311 309 309 308 307 306 305 304 303 302
318 320 321 319 317 318 318 317 316 317 320 321 319 318 319 320 320 320 320 320 320 322 322 322 322 322 324 324 326 324 321 323 322 321 323 323 323 324 321 321 324 323 320 320 322 325 325 327 327 319 315 317 319 320 321 322 320 317 318 321 322 321 322 325 324 324 327 328 328 328 328 328 325 321 321 319 315 314 313 310 309 308 307 306 305 304 303 302
319 321 323 319 318 318 317 317 318 319 321 320 318 317 318 320 321 321 320 321 323 323 321 323 323 321 323 324 324 325 323 322 323 322 323 322 322 325 323 321 323 322 322 322 322 324 324 325 326 322 318 319 320 318 318 320 321 319 319 320 321 321 322 325 326 324 323 325 326 327 327 326 323 320 320 318 317 315 313 311 310 308 308 307 305 305 303 302
319 322 323 319 318 318 317 318 319 319 320 320 318 318 318 320 320 320 320 320 322 322 321 322 323 323 324 323 324 326 324 323 324 323 324 323 322 324 323 321 322 322 322 323 322 323 326 325 325 324 321 319 318 317 318 319 320 319 319 320 321 321 322 325 327 326 324 323 323 326 327 324 319 319 320 320 320 317 314 312 311 309 307 307 306 305 303 302
317 321 321 319 318 318 318 320 321 319 320 320 318 318 319 319 319 319 320 320 320 321 321 322 322 323 324 324 324 326 324 324 325 324 324 324 322 323 323 322 322 321 321 323 323 323 324 325 325 325 323 320 317 317 317 316 317 319 321 321 321 321 320 322 324 325 325 324 324 325 326 323 319 317 316 315 316 318 316 313 312 309 307 307 307 306 304 303
317 319 320 320 318 318 320 321 320 318 317 318 318 318 318 318 318 319 320 320 320 320 321 321 321 321 322 323 325 326 326 325 325 324 325 324 325 326 324 322 323 322 321 323 323 322 323 325 326 327 327 326 322 319 319 318 316 319 320 320 320 320 321 322 321 321 323 324 325 325 325 324 320 316 313 311 311 314 315 313 312 310 308 307 307 306 305 303
318 318 319 319 318 318 322 323 320 317 314 316 317 318 318 318 318 318 318 319 320 320 320 321 321 321 321 323 324 324 325 326 326 326 325 324 327 331 327 323 322 321 321 323 320 320 324 325 324 326 327 328 327 326 324 320 317 317 318 319 319 320 322 322 321 322 323 324 325 324 324 324 319 314 313 313 312 312 312 312 312 310 308 307 307 307 305 304
317 317 318 319 318 318 321 322 320 318 316 315 316 317 317 318 318 318 318 318 319 319 320 321 321 321 322 323 324 323 324 325 326 326 326 325 328 329 326 325 323 321 325 327 321 321 326 325 322 324 326 325 326 327 325 321 319 318 319 318 318 319 320 321 321 322 322 323 324 323 322 324 322 317 315 315 314 312 311 311 312 312 309 307 307 307 306 304
316 316 317 319 319 319 319 320 320 319 318 316 316 317 317 317 318 319 320 319 319 319 320 320 321 322 322 322 324 324 323 323 325 326 325 326 328 324 320 322 324 323 325 324 320 322 326 325 322 323 324 324 324 325 324 322 320 320 319 319 318 318 319 321 321 322 322 323 324 322 322 323 322 319 317 316 315 312 310 310 311 311 310 309 308 308 307 306
316 316 317 319 320 319 318 318 320 320 318 317 316 317 318 317 318 320 321 321 320 320 321 321 321 321 321 321 322 324 324 323 324 325 324 326 328 322 318 319 320 319 319 319 318 321 324 323 322 323 323 323 323 323 324 323 321 321 321 319 318 318 319 319 320 320 322 323 323 322 324 324 321 319 319 317 315 312 310 309 309 310 310 309 308 308 307 306
315 316 317 317 319 320 317 317 318 319 319 318 317 318 318 318 318 319 320 321 321 321 322 323 322 321 321 321 322 322 323 324 324 324 323 325 326 323 321 322 319 315 316 318 318 319 321 321 321 322 322 322 322 322 323 323 323 322 322 321 319 318 317 318 319 318 319 321 320 321 324 323 320 321 320 316 315 313 312 311 310 310 310 308 307 306 305 305
314 315 316 316 316 318 318 318 318 319 319 318 318 318 318 319 319 318 319 321 321 321 322 323 323 322 322 322 323 323 323 323 324 323 322 323 323 322 321 323 322 316 314 316 317 317 319 321 321 321 322 322 321 321 322 323 323 323 323 323 321 320 318 317 317 317 318 319 318 319 321 320 319 321 321 318 316 315 315 314 310 308 308 306 306 305 304 304
309 309 311 315 316 315 317 317 318 318 317 317 317 317 317 318 318 318 318 319 320 321 321 322 322 322 322 322 323 323 322 321 322 323 323 323 322 321 321 322 323 319 314 314 316 316 317 321 322 321 321 322 321 321 321 321 321 321 322 322 321 321 320 318 317 317 317 318 318 318 319 318 317 320 321 318 317 316 314 313 310 308 307 305 305 305 304 303
306 307 309 314 316 314 314 315 316 317 317 315 315 315 316 317 317 317 318 318 319 320 320 321 321 322 323 323 322 322 323 323 324 322 320 320 320 320 321 321 320 319 315 314 315 315 316 318 319 319 321 322 321 321 321 320 321 322 322 321 320 320 320 319 318 317 317 317 318 319 318 317 318 321 321 318 316 315 312 310 309 307 306 304 304 304 303 302
Wind_Speed
1 1 1 1 1 1 1 1 1 1 2 2 2 2 2 2 3 2 2 2 2 2 3 3 5 6 7 8 8 9 9 9 7 4 2 2 2 2 3 2 2 2 3 4 6 7 6 3 1 4 4 2 1 1 1 2 1 2 0 1 3 1 2 1 2 3 3 6 5 4 1 0 4 3 2 2 2 3 6 7 5 8 8 8 7 6 6 8
1 1 1 1 0 1 1 1 1 1 2 2 2 2 2 3 3 2 2 1 2 2 3 4 5 6 7 7 8 10 10 10 6 2 5 2 1 3 3 3 4 4 4 6 7 8 6 3 4 5 3 2 0 0 1 1 1 1 1 2 2 2 2 4 6 5 3 6 6 5 3 3 3 2 1 0 4 5 5 6 6 7 7 8 8 8 8 10
1 0 0 1 1 1 1 2 2 2 2 2 2 1 2 2 2 2 1 1 2 2 3 4 5 5 6 7 8 10 11 8 4 2 4 3 4 3 4 5 5 4 4 6 7 7 7 5 5 5 3 1 1 0 1 1 1 0 1 2 2 2 4 6 7 6 6 5 5 5 3 2 2 2 1 2 3 4 3 3 5 7 6 6 7 8 9 10
1 1 1 1 2 2 2 3 3 2 2 2 2 2 1 1 1 2 2 2 2 3 3 4 5 5 6 6 8 10 9 4 0 2 4 5 4 4 6 6 6 4 4 5 5 5 6 6 5 4 3 1 2 1 1 2 1 1 1 2 3 2 3 6 6 6 6 5 3 5 3 1 2 3 1 2 3 1 3 4 3 6 6 5 6 6 8 9
2 2 2 2 3 3 3 3 3 3 2 2 2 2 2 2 2 2 2 2 3 3 3 4 4 5 6 6 8 9 5 1 2 4 5 6 5 6 7 6 6 5 6 4 5 5 6 6 4 3 2 1 3 1 1 3 0 1 2 3 4 4 3 5 6 6 4 3 3 3 1 1 2 1 2 3 3 1 3 4 5 6 6 5 5 6 8 9
3 3 2 3 3 3 3 3 3 3 3 2 2 2 3 2 2 3 3 2 3 3 4 4 4 5 5 6 8 6 3 0 3 7 7 6 6 6 6 6 5 5 5 3 5 5 5 4 3 2 2 1 1 2 1 2 1 0 1 4 4 4 2 4 4 3 3 3 2 1 2 2 2 3 3 2 1 4 4 4 5 6 6 6 6 7 7 7
4 4 4 4 4 4 4 3 3 3 3 3 2 3 3 3 3 3 3 3 3 4 4 4 5 5 5 6 6 4 3 1 3 7 7 6 6 5 5 4 3 4 5 4 6 4 3 4 3 2 2 2 1 3 2 2 1 1 1 4 3 4 2 3 4 2 1 1 1 2 3 3 3 3 2 3 5 6 5 5 6 7 7 7 7 6 6 7
6 6 6 5 5 5 4 4 4 4 4 3 4 4 4 4 4 3 3 3 3 4 4 4 4 4 5 5 4 3 3 2 3 7 7 5 4 4 3 2 1 3 4 4 6 6 4 4 3 2 3 1 2 1 1 2 3 1 1 3 2 1 0 4 4 3 2 2 2 1 1 5 5 1 0 5 8 6 6 6 6 7 6 6 6 5 6 7
8 7 6 6 5 5 5 5 5 5 5 4 5 5 5 5 4 4 4 3 3 3 4 4 4 4 5 5 4 3 0 3 5 6 6 4 3 2 2 1 1 2 3 2 4 5 2 3 3 3 3 2 2 1 3 1 1 2 3 2 0 2 3 5 5 5 5 3 3 3 5 7 4 2 1 5 9 6 6 6 5 6 5 5 5 5 6 6
10 9 7 7 6 5 5 5 6 5 5 5 6 6 6 6 4 4 4 3 3 3 3 3 3 3 3 4 4 2 2 5 6 5 5 5 3 2 2 2 1 2 4 1 2 5 3 4 4 3 3 1 1 1 2 1 1 2 3 4 4 5 4 5 5 6 5 4 5 5 6 4 3 2 2 4 8 7 7 6 5 5 5 5 4 4 6 7
11 11 9 7 6 6 6 6 6 6 6 6 6 7 6 5 4 4 4 3 3 3 3 3 3 3 4 3 3 2 3 5 5 5 4 4 5 5 3 3 3 1 4 2 1 3 5 5 5 2 2 2 1 1 2 1 1 1 2 5 7 7 6 5 6 5 4 3 6 6 6 2 4 1 4 7 8 7 7 7 6 5 5 5 5 4 5 7
12 11 10 8 7 7 6 7 7 6 6 7 7 7 6 5 4 4 4 3 3 3 2 2 2 2 3 3 3 2 5 6 5 5 4 4 5 5 4 4 4 2 2 4 0 0 3 4 4 4 1 2 2 2 1 0 2 1 1 5 6 6 7 9 8 5 4 2 4 4 3 5 6 3 5 9 8 7 7 7 6 5 5 5 5 4 5 6
13 13 11 9 8 7 7 7 7 7 7 7 7 6 6 4 4 4 3 3 3 3 3 2 2 1 2 2 2 5 7 6 5 4 4 4 4 3 3 3 4 4 1 3 2 1 3 1 3 3 1 2 2 1 1 1 1 2 3 3 4 5 5 8 7 5 5 3 4 5 1 5 5 5 7 8 7 7 7 6 6 5 5 5 4 4 5 5
14 14 13 11 8 7 9 8 7 8 7 7 6 6 6 4 4 3 3 3 3 3 3 3 2 0 0 1 2 5 7 6 5 4 5 5 4 3 2 2 2 3 2 2 1 1 3 2 3 2 1 1 1 1 2 2 2 2 3 2 2 3 3 2 6 7 5 2 4 5 2 4 3 6 7 7 7 7 7 6 6 6 5 4 4 5 5 5
15 14 13 12 8 7 11 11 9 8 8 7 6 6 5 3 3 2 2 3 3 3 3 2 3 1 1 2 1 3 5 5 5 6 7 7 4 3 3 2 2 2 2 2 2 2 3 2 3 1 2 0 1 1 3 3 3 3 2 2 2 3 2 2 5 7 4 1 4 5 2 3 3 6 7 7 7 7 6 7 7 6 6 5 5 5 5 5
16 15 14 12 9 9 11 13 10 8 8 8 7 5 3 2 1 1 2 2 1 2 2 0 4 3 3 2 2 2 4 4 6 8 8 8 5 4 6 5 3 3 2 2 3 4 3 2 1 1 1 1 2 2 2 3 3 3 4 3 3 4 4 3 3 4 3 3 5 5 3 2 3 6 7 7 8 8 6 7 8 7 7 6 5 5 5 6
17 16 15 13 10 9 10 12 9 8 9 6 4 2 1 1 1 1 1 2 2 3 1 2 1 4 2 1 2 2 4 6 8 8 8 8 6 6 8 5 5 5 4 4 3 3 3 2 1 1 1 2 3 3 1 3 4 3 4 3 5 5 5 2 1 3 4 4 5 6 6 5 3 7 8 8 9 9 7 7 8 7 6 6 6 5 6 6
18 17 16 14 11 9 10 11 7 8 7 3 1 1 1 1 2 2 0 3 4 2 1 3 2 3 3 3 3 3 7 9 9 7 8 10 8 7 7 4 6 7 5 3 1 2 2 1 1 1 1 3 3 4 3 4 4 3 2 3 4 4 5 4 1 3 6 4 5 6 7 9 6 8 8 9 10 10 9 8 8 8 7 6 6 6 6 7
20 18 17 15 12 12 11 9 5 6 4 1 3 3 3 2 1 2 4 4 3 2 1 3 5 1 1 4 5 7 9 11 9 6 8 10 8 6 5 3 5 5 4 3 2 4 2 1 2 1 3 5 5 6 6 6 5 6 3 1 3 3 4 3 2 4 5 3 5 7 6 8 7 7 9 9 9 9 9 8 7 7 7 7 6 6 6 6
20 19 18 16 14 15 13 10 6 4 2 2 3 2 1 0 2 2 5 7 7 7 4 5 10 3 2 5 7 9 10 9 5 4 9 10 9 7 5 4 4 2 2 4 4 2 2 3 4 4 6 7 7 9 9 8 8 6 3 3 5 3 5 5 1 4 2 2 6 6 6 9 8 6 9 9 8 8 9 8 8 8 8 7 7 7 7 6
21 19 19 18 16 14 13 10 8 6 5 4 1 2 1 0 2 0 2 7 12 16 11 6 10 4 2 7 12 13 7 3 1 4 11 11 9 7 5 5 4 2 5 5 3 2 1 4 7 8 8 7 7 8 9 9 8 6 3 4 5 3 6 5 2 4 2 1 4 6 7 10 9 7 7 10 9 10 11 11 10 10 8 7 8 8 7 6
23 21 19 19 16 13 13 10 8 7 8 5 4 6 2 3 1 3 1 3 9 17 15 12 10 4 4 9 14 11 2 2 3 5 11 11 7 5 5 5 5 4 6 5 3 2 2 6 9 10 8 7 8 6 6 7 6 5 3 3 4 4 5 3 2 3 2 1 3 5 7 8 9 8 6 11 12 11 13 13 11 11 10 8 8 9 8 8
24 21 20 19 15 14 13 9 8 9 10 8 7 7 3 3 4 6 2 3 4 10 11 11 12 8 6 7 11 9 4 6 5 6 13 12 5 4 5 6 6 5 6 7 5 4 4 6 9 11 8 8 7 3 2 3 2 3 3 3 4 4 4 3 1 1 2 2 4 5 7 8 8 9 8 12 12 7 6 6 5 6 9 9 8 8 9 9
24 22 21 18 15 15 13 10 10 11 12 10 11 10 2 3 4 6 1 3 4 6 10 14 12 10 9 7 11 12 5 6 6 7 16 14 5 3 4 7 7 6 6 9 9 8 7 4 4 9 9 7 5 4 4 3 3 4 6 6 5 5 6 6 2 3 3 3 5 4 6 7 8 10 12 8 6 3 2 3 3 2 5 8 8 8 8 9
24 24 22 19 16 16 15 11 12 12 11 10 13 14 9 5 5 4 2 3 5 3 5 12 7 7 11 10 13 11 4 7 6 8 19 17 8 4 4 5 5 6 8 10 10 9 10 4 2 6 6 6 6 5 6 5 4 5 7 9 9 7 7 6 2 1 2 4 3 2 3 5 4 8 9 3 4 4 4 5 5 3 4 6 7 7 8 8
25 25 24 21 17 20 16 9 11 13 11 12 13 12 12 9 3 2 1 2 6 1 2 6 5 9 13 10 11 7 1 5 2 11 22 17 8 3 3 5 3 5 7 7 6 4 3 3 4 6 6 6 6 5 6 7 4 4 4 5 9 8 5 5 4 2 2 3 1 3 2 5 5 6 6 4 6 8 6 7 8 7 6 6 7 7 7 8
26 25 26 22 20 25 15 4 11 15 8 10 13 11 12 11 5 2 1 2 6 4 5 3 3 7 10 12 14 7 1 3 5 9 12 9 6 1 2 7 4 4 3 1 4 2 3 4 3 5 6 6 6 5 6 8 4 3 4 3 3 4 3 3 3 3 3 3 2 3 3 5 8 8 7 6 7 9 9 10 9 9 10 9 8 8 8 8
28 27 26 23 25 30 17 7 14 17 8 5 11 14 12 11 6 1 1 3 4 4 5 2 1 3 6 12 15 7 1 4 6 2 1 2 3 2 4 9 6 6 4 3 5 1 3 6 6 7 6 5 5 3 5 9 5 2 1 3 4 2 1 1 2 3 3 4 3 4 4 4 8 5 6 8 8 10 12 13 12 11 12 11 11 10 10 8
30 28 27 25 27 29 21 12 12 15 13 7 10 16 14 10 6 1 0 3 2 3 2 3 3 3 6 10 11 6 3 2 1 1 2 2 1 1 3 6 4 6 7 9 8 1 1 3 3 5 6 5 3 3 1 5 5 3 3 5 5 3 3 1 1 1 2 4 6 5 6 4 7 4 5 6 7 10 12 11 12 12 11 11 11 11 11 10
32 29 28 27 28 30 26 20 15 14 16 10 11 18 16 8 3 2 3 4 1 1 2 2 3 6 10 10 7 7 4 2 2 2 2 2 0 2 1 1 3 3 3 6 7 2 3 1 0 1 2 2 4 4 5 2 5 5 4 5 4 1 2 1 1 1 1 6 6 9 10 6 6 3 6 6 6 9 9 7 8 10 11 11 10 10 11 11
35 31 29 30 33 32 25 19 19 18 18 15 14 18 13 3 0 5 6 2 3 1 4 2 4 9 13 13 8 8 6 4 5 6 4 3 1 1 1 1 0 1 2 3 4 1 3 1 1 0 0 3 5 4 4 4 3 4 4 4 3 1 3 2 1 2 2 7 4 9 13 10 7 5 3 4 4 4 6 6 10 11 12 11 9 10 10 10
37 33 31 34 36 34 25 20 23 22 18 18 17 12 7 2 1 6 5 2 1 4 7 5 7 10 12 12 9 9 9 6 6 7 5 5 5 5 6 5 5 3 2 4 3 1 2 5 5 1 2 3 5 3 3 5 2 2 5 5 3 0 1 1 2 3 5 7 3 3 8 9 9 7 6 7 2 2 3 5 12 13 12 11 10 10 9 9
39 35 35 38 38 38 31 24 26 24 20 21 16 4 2 4 7 10 9 5 1 1 5 7 9 11 12 10 6 8 7 4 7 8 5 6 6 6 8 7 7 5 3 5 5 2 2 4 6 4 2 4 8 6 3 1 2 5 6 5 5 3 2 4 4 3 5 5 3 2 2 3 5 4 10 13 4 3 5 2 10 12 13 12 12 11 9 9
41 39 39 41 42 41 35 26 26 28 25 20 11 4 6 8 10 13 16 13 3 2 3 6 9 11 10 7 5 8 5 2 8 8 5 6 5 6 7 9 12 8 1 3 4 5 4 4 6 9 3 7 13 10 6 6 5 7 6 5 5 5 3 4 4 4 3 2 2 2 1 3 2 2 5 5 2 4 6 3 7 9 10 10 10 10 10 10
44 45 43 41 42 41 37 30 29 31 26 14 6 8 11 10 10 13 15 12 5 2 3 7 9 9 8 4 4 7 2 1 7 7 6 8 6 7 9 10 14 10 4 4 2 5 7 5 5 7 4 10 13 9 6 7 4 5 4 4 6 4 4 3 1 2 1 2 2 2 3 4 3 2 2 2 4 4 4 3 8 8 9 10 9 10 10 10
43 44 40 38 41 43 40 33 33 35 24 10 7 9 11 12 12 11 9 9 7 5 7 7 5 6 6 4 4 5 1 2 6 5 3 6 5 7 9 8 13 13 9 7 2 4 5 3 2 3 2 7 6 5 7 5 3 3 4 6 4 2 3 3 2 2 3 3 4 4 4 4 2 3 3 5 3 4 1 1 6 8 9 11 9 9 10 10
34 30 25 29 38 44 43 38 37 35 19 9 11 10 9 12 12 8 6 9 10 10 9 6 5 7 7 4 5 7 3 2 6 5 2 3 3 8 11 7 11 17 14 8 2 1 4 1 1 1 1 2 3 1 2 1 2 5 4 5 2 4 2 1 1 2 1 6 4 5 8 5 3 5 3 7 4 4 5 6 6 7 9 10 9 10 10 10
28 20 15 25 40 43 43 42 38 27 11 7 12 11 10 13 14 10 9 9 9 11 10 9 7 8 8 6 6 10 9 5 6 6 4 4 4 7 12 8 9 17 16 9 3 2 2 1 3 1 2 1 3 1 2 3 2 5 2 2 3 1 1 3 2 3 3 6 5 4 8 7 7 6 4 7 9 9 8 8 8 10 11 10 9 10 11 11
20 11 8 27 43 43 46 46 32 16 6 6 10 10 11 13 13 10 9 9 9 10 11 11 8 7 8 9 6 9 11 9 9 7 5 6 4 6 13 10 8 14 15 12 7 2 2 2 3 3 2 1 1 1 4 3 1 2 3 3 1 2 3 4 3 2 3 4 6 5 5 5 7 8 9 12 14 13 11 10 11 13 13 11 10 11 11 12
11 4 3 21 40 45 48 41 21 9 8 9 9 8 9 9 10 9 7 7 7 7 8 10 9 8 9 10 8 9 10 9 10 9 6 7 5 5 11 10 8 11 13 13 9 2 2 2 3 2 3 2 2 4 9 10 8 4 1 2 3 2 1 0 2 2 3 3 4 6 7 4 3 5 12 15 14 13 14 14 13 12 12 12 11 12 12 12
5 4 2 16 37 45 39 22 9 9 8 8 11 12 9 5 6 10 11 7 4 3 4 6 8 9 9 10 9 7 8 8 9 8 6 8 8 5 8 12 10 10 10 9 8 4 3 3 4 2 1 4 5 7 9 9 8 8 7 8 8 6 4 2 5 4 3 4 4 4 9 7 2 0 5 11 12 12 14 14 12 11 13 13 12 13 13 13
3 5 2 19 42 45 26 8 6 8 7 9 10 9 6 4 4 10 12 9 6 4 4 3 6 9 8 9 9 7 7 6 8 9 7 10 11 7 9 13 13 13 11 7 8 7 3 2 3 3 4 5 4 2 2 1 1 1 3 5 6 6 7 6 7 5 4 6 4 1 7 7 1 3 3 2 5 8 12 12 10 11 12 12 12 12 13 13
4 5 2 22 48 40 14 7 10 8 8 10 6 3 4 5 6 8 9 11 9 6 5 5 5 6 7 8 8 8 9 7 10 12 9 10 11 8 11 15 13 14 11 4 3 3 3 3 3 3 1 1 2 2 3 4 3 1 3 4 7 9 9 8 6 2 2 6 4 2 7 6 2 3 4 3 2 2 8 11 11 9 9 10 12 12 12 12
4 4 1 20 46 36 10 7 9 7 9 9 5 6 6 5 8 10 11 13 11 8 8 8 7 7 6 5 4 4 6 6 9 12 10 8 6 4 11 17 14 11 9 6 6 5 4 4 3 1 3 2 0 1 2 2 1 3 5 6 8 9 9 7 4 1 4 9 7 5 9 6 1 2 3 3 4 4 4 6 9 9 8 9 10 10 11 11
2 2 2 10 26 23 9 8 9 8 10 10 9 12 10 6 9 13 13 12 10 9 10 10 10 9 6 3 2 3 5 7 7 8 8 7 3 2 6 15 16 12 9 9 10 8 5 5 6 6 8 9 8 5 3 3 3 3 5 8 11 11 12 9 5 4 10 9 8 9 12 5 1 1 1 0 0 2 2 3 7 9 9 9 9 9 10 11
3 3 2 3 7 8 6 8 9 8 11 11 8 10 13 11 8 10 12 12 12 12 10 9 9 8 8 7 7 8 11 10 6 4 6 7 3 3 0 7 12 11 7 10 11 7 3 4 9 13 13 14 13 8 5 9 8 8 10 13 14 15 15 10 5 9 11 4 5 14 13 8 6 3 4 5 5 5 3 4 6 7 9 10 10 9 9 10
4 4 4 3 2 5 6 5 8 9 11 13 8 6 13 14 10 8 10 11 13 14 12 9 8 9 11 13 12 12 13 13 10 8 9 7 2 3 3 1 2 3 4 9 10 7 3 4 11 16 17 18 17 12 7 11 12 14 15 16 17 16 15 13 13 15 8 4 11 15 9 13 15 8 8 10 8 7 7 8 8 7 9 9 8 9 9 10
5 3 5 5 3 4 6 6 8 11 12 14 9 7 12 14 12 10 9 10 12 12 10 9 12 16 17 17 14 12 11 12 13 14 12 7 3 1 1 1 1 1 3 3 6 5 4 7 12 15 17 19 19 15 11 10 11 11 13 16 18 17 19 20 22 20 10 8 18 14 10 16 17 8 10 11 9 10 11 10 8 7 8 9 10 11 11 11
5 2 2 3 3 4 6 6 8 10 11 11 9 10 13 15 17 14 9 7 9 11 10 11 16 20 20 16 13 11 12 12 13 15 13 9 5 5 3 3 2 2 4 3 3 2 3 8 11 10 13 19 19 16 13 12 10 9 11 14 16 19 24 24 23 22 17 16 23 17 11 17 14 6 10 11 10 9 7 7 8 9 9 10 12 12 12 12
5 3 1 2 3 3 4 6 7 7 8 7 7 8 11 15 18 14 10 8 9 11 13 16 20 19 18 17 14 14 15 15 16 15 11 10 8 5 6 5 3 3 3 4 2 1 3 6 6 3 6 16 18 14 13 13 13 12 10 11 15 19 20 19 17 17 15 18 24 19 15 19 11 4 5 7 7 6 6 8 9 9 10 11 11 11 11 11
2 2 0 2 3 4 4 4 5 5 5 5 5 5 7 12 14 11 9 10 11 10 12 18 22 15 12 16 17 18 19 18 16 11 5 7 8 5 5 6 7 6 5 5 2 2 4 4 0 4 5 14 15 10 11 12 11 12 15 19 22 17 12 13 15 15 15 18 20 15 14 18 10 5 3 3 8 8 8 10 9 8 9 11 11 10 10 10
2 4 2 2 4 6 5 3 4 5 5 5 7 7 6 9 9 7 6 5 9 11 10 13 17 11 9 15 18 19 17 12 8 4 2 3 2 1 1 3 6 8 8 6 2 2 5 5 3 5 7 12 9 5 8 8 7 10 16 22 23 18 13 12 14 16 18 17 14 13 14 14 6 6 5 4 8 10 9 8 7 7 8 9 10 10 10 11
Wind_Direction
157 157 156 141 123 281 279 136 206 216 219 225 221 219 218 221 217 217 228 246 261 281 294 300 305 308 313 315 325 325 324 338 325 325 16 320 326 163 168 132 139 113 73 30 1 337 307 262 3 340 302 258 351 339 296 331 8 337 284 237 261 184 107 252 91 88 123 126 134 136 171 198 134 140 112 134 222 181 101 96 96 73 79 94 91 73 55 49
168 146 129 154 176 301 325 351 267 254 248 237 235 229 215 217 216 213 211 243 275 290 292 295 298 304 309 315 327 323 329 336 314 25 41 337 156 148 143 128 128 100 64 23 358 335 323 353 11 328 287 230 96 335 268 347 20 322 299 284 307 49 42 2 51 51 49 107 120 105 26 357 107 125 84 208 209 183 121 117 127 99 100 101 82 64 60 55
182 123 339 221 262 294 301 310 299 277 265 251 249 251 222 219 224 221 221 254 278 285 285 287 292 300 307 320 326 324 335 332 294 75 56 101 130 126 122 123 103 86 62 26 356 338 335 333 329 311 288 253 114 246 227 25 339 106 351 345 28 68 63 34 56 55 26 57 104 109 62 352 131 130 170 259 250 199 129 117 143 125 116 101 80 62 60 60
203 267 297 308 312 303 294 297 300 289 273 261 252 265 255 237 255 260 249 254 269 273 274 276 287 298 310 324 321 324 338 330 235 106 108 121 124 114 115 108 85 77 59 27 334 324 321 296 295 299 295 268 139 212 208 86 343 345 39 50 36 9 69 58 56 56 37 28 41 88 89 274 124 97 162 266 284 213 78 39 62 108 106 95 86 68 62 62
222 257 280 302 310 315 304 292 305 303 288 273 245 248 252 249 266 273 262 264 272 268 270 275 286 297 308 316 311 324 338 310 146 150 140 126 125 118 113 101 88 70 58 27 317 315 301 281 280 283 262 221 151 184 14 72 28 326 44 75 48 355 51 82 67 49 34 22 21 71 94 318 86 99 209 231 263 142 82 47 49 74 84 82 81 74 68 62
241 259 275 284 291 302 290 280 299 302 293 279 249 238 242 250 252 256 265 268 265 265 270 278 291 299 303 303 303 312 315 58 150 169 151 131 129 124 126 112 96 61 50 351 306 302 292 285 267 269 261 259 103 93 42 50 88 354 52 80 50 6 41 84 83 60 17 19 1 358 352 7 12 288 242 194 110 105 94 79 79 78 87 89 79 72 68 60
251 260 268 274 276 279 273 271 280 290 285 261 244 245 245 255 257 260 266 267 269 270 276 284 297 304 303 302 303 282 245 64 136 169 155 144 132 128 143 130 113 63 26 321 309 312 323 304 279 322 307 285 39 76 49 320 249 251 216 106 55 359 28 73 99 110 49 345 326 28 16 315 282 289 288 110 106 111 108 99 103 101 100 95 82 75 74 67
245 252 260 269 281 285 279 282 283 286 287 267 246 244 252 260 264 270 268 268 269 270 281 293 303 312 315 313 311 269 235 85 134 161 155 152 134 131 137 120 110 55 4 327 331 337 349 302 301 5 318 328 8 60 72 305 257 285 1 92 75 327 176 116 130 159 176 234 269 37 311 260 244 246 330 132 125 123 122 117 114 114 106 95 85 84 87 79
242 248 255 258 270 283 284 289 287 283 285 279 257 247 256 259 266 274 271 270 265 275 287 295 302 309 320 317 300 285 208 125 145 156 163 175 174 179 139 97 74 5 323 327 326 312 327 329 358 13 330 6 357 342 87 39 320 24 16 359 351 235 213 163 171 198 194 205 200 203 241 246 221 101 73 132 130 131 130 130 130 129 116 104 101 94 95 92
250 251 254 258 267 279 282 282 281 281 278 275 268 260 260 261 270 272 269 269 263 278 284 294 304 295 317 312 274 272 130 136 140 147 171 190 193 172 148 159 166 284 289 297 315 306 335 359 0 14 355 331 312 23 73 73 300 338 359 319 284 261 248 179 197 217 187 193 187 197 249 242 121 127 219 136 132 141 136 139 148 137 126 124 120 107 103 99
255 255 256 260 267 279 288 286 283 281 276 278 274 265 265 268 273 270 268 264 261 275 279 298 294 281 314 307 272 265 156 145 136 142 159 171 165 151 172 193 167 229 303 284 276 333 354 0 342 338 24 339 294 123 83 40 261 337 359 300 269 246 243 205 218 221 165 183 189 195 257 225 109 210 205 141 143 154 143 145 158 146 132 131 125 122 108 95
254 257 258 255 259 274 288 295 295 285 277 277 272 266 269 271 270 268 263 255 261 268 269 287 277 293 320 285 260 211 165 154 144 152 158 159 163 166 189 198 178 167 337 324 23 56 325 351 331 295 354 346 312 151 116 335 271 326 290 281 282 255 238 216 208 191 156 176 175 164 275 240 191 191 129 132 151 159 151 149 157 151 137 136 129 121 99 87
263 261 258 255 256 264 278 292 300 296 285 275 272 270 268 266 262 261 259 257 260 261 261 263 260 345 336 278 204 171 164 157 151 156 159 150 144 157 186 191 194 196 238 335 36 146 248 297 316 300 9 343 315 162 209 203 215 290 241 229 293 291 254 205 174 142 142 158 163 141 288 257 194 142 119 134 157 159 158 156 160 155 143 147 136 120 102 89
274 272 264 255 248 257 272 282 295 298 292 284 276 266 266 267 254 249 252 251 252 261 259 244 238 100 314 260 153 167 171 154 145 150 150 136 120 114 131 174 191 210 221 259 283 238 210 204 285 293 65 344 304 165 259 220 178 276 282 199 211 277 283 168 137 144 154 179 175 147 240 273 135 130 141 153 165 166 167 166 166 159 150 149 136 133 121 102
270 276 276 262 242 245 266 277 289 291 288 286 276 268 272 264 245 244 247 250 259 256 252 245 220 191 287 249 141 160 178 160 152 166 158 138 136 138 127 146 156 174 208 223 218 188 177 203 269 262 118 125 222 229 277 255 200 193 254 271 214 199 228 167 150 170 169 215 187 159 228 256 150 152 160 159 172 180 180 170 166 164 159 155 153 155 138 123
262 268 278 274 245 236 261 279 291 297 293 284 271 275 269 241 233 225 235 248 248 198 169 287 202 200 299 244 151 158 184 177 172 181 176 156 153 142 133 131 122 130 146 152 166 162 181 218 264 300 160 170 209 212 266 278 250 192 185 251 251 207 210 171 181 208 155 131 180 192 249 279 148 161 164 168 181 191 195 175 169 173 165 160 165 160 141 137
256 261 269 274 251 236 262 276 294 316 306 281 260 278 266 163 154 179 241 211 167 156 173 329 220 198 262 176 185 212 167 164 173 181 189 173 152 135 143 146 136 138 135 134 153 173 204 215 135 295 217 208 228 190 213 263 251 222 182 220 252 235 227 193 198 228 172 167 204 208 233 264 197 163 173 183 184 189 200 189 172 169 169 168 163 158 155 154
251 254 261 271 253 230 252 264 292 324 307 269 215 153 87 103 162 157 146 169 137 102 286 299 279 223 234 192 158 125 130 143 159 168 181 174 156 156 168 167 147 149 148 145 191 190 197 177 137 274 232 200 224 188 183 214 234 264 214 209 266 260 241 233 182 176 182 202 235 209 219 247 218 172 182 193 190 191 200 195 174 167 171 169 163 167 166 155
246 248 254 267 251 228 238 245 274 317 306 81 87 97 73 49 247 217 205 194 152 143 257 202 194 206 142 159 119 91 112 135 146 149 168 166 153 164 190 178 161 170 165 154 202 189 163 131 150 241 228 201 208 204 210 224 252 291 307 268 294 304 269 265 108 165 191 205 235 227 232 252 233 188 187 192 195 198 204 198 176 169 171 168 169 170 165 152
244 245 246 255 251 234 230 228 243 283 236 138 85 93 61 112 238 215 203 216 216 234 277 173 187 215 89 127 116 108 114 128 138 141 160 164 154 161 189 185 166 205 220 170 171 179 146 175 198 212 216 213 210 211 224 245 266 283 310 300 285 285 274 277 141 169 200 215 235 243 253 263 260 218 191 184 192 201 209 205 187 177 173 172 173 166 159 144
241 243 240 245 253 237 217 214 229 240 198 160 144 220 266 103 222 150 184 222 228 238 263 228 202 223 124 135 143 141 127 129 172 152 163 169 167 167 180 185 167 201 229 196 145 54 113 206 221 220 219 229 231 224 224 232 252 265 272 286 281 264 262 271 165 159 122 64 255 267 271 266 267 252 193 168 183 203 205 202 195 187 179 173 170 164 151 126
239 241 235 240 251 225 200 206 221 214 186 175 226 235 305 358 349 7 334 246 233 226 240 249 239 237 133 148 163 165 163 176 155 159 173 174 183 189 171 180 193 198 206 194 129 86 226 232 231 228 231 239 244 252 240 227 235 244 247 274 271 267 274 282 109 136 115 89 266 277 280 271 266 265 208 176 191 206 206 203 196 185 180 177 169 162 148 135
237 236 231 237 240 209 195 205 207 198 191 197 222 222 290 347 28 18 305 277 267 215 217 232 235 222 174 158 175 182 199 186 175 181 180 174 182 202 176 180 208 217 199 193 183 183 214 235 228 224 234 240 233 232 256 262 253 229 225 245 250 255 267 265 144 194 192 209 268 294 293 275 266 266 240 204 195 195 204 199 183 177 177 172 166 160 154 152
233 232 229 232 227 200 189 198 197 199 202 213 225 216 230 326 354 10 331 269 269 215 202 204 213 214 192 165 175 185 206 208 201 177 177 177 163 167 192 191 205 222 211 200 202 220 233 247 220 208 214 220 212 195 205 227 244 229 216 220 241 240 235 241 218 174 199 228 238 277 296 273 247 242 242 216 166 145 145 135 107 103 152 149 149 156 160 162
229 228 225 224 221 194 182 197 200 198 202 219 234 224 220 252 305 346 357 269 246 236 208 198 199 210 188 159 165 174 194 224 225 165 173 182 167 148 196 197 205 222 218 208 210 236 243 234 163 181 186 183 199 217 193 185 228 244 220 212 223 236 246 263 298 55 322 284 220 179 280 272 244 236 236 175 140 180 173 171 177 164 146 148 152 159 162 161
226 226 221 220 213 186 183 209 199 190 200 223 232 218 212 221 255 303 45 297 253 239 137 179 171 184 176 153 153 141 147 234 225 150 168 186 188 162 199 187 196 227 222 216 218 244 236 169 140 157 164 167 194 230 189 173 208 248 255 227 212 226 257 284 316 338 267 275 246 145 216 269 288 275 252 174 191 209 188 197 200 182 182 178 166 168 166 161
224 223 218 216 199 183 187 201 180 182 198 228 224 206 201 200 203 242 114 306 261 170 136 184 181 177 165 157 158 139 179 179 100 135 163 186 194 120 209 194 180 217 235 231 225 229 126 141 152 151 157 174 193 222 187 168 184 232 289 338 169 206 254 267 279 255 243 303 288 171 179 274 279 264 237 181 197 225 213 212 210 196 195 188 178 176 169 165
222 219 217 211 194 189 191 164 169 186 207 217 201 193 189 184 190 221 139 249 260 128 133 193 139 136 139 159 166 149 129 135 118 149 99 143 184 85 210 211 191 187 196 202 218 297 114 164 175 166 174 198 199 225 194 174 180 223 254 43 79 98 354 310 273 259 289 330 267 183 142 266 273 248 197 176 197 230 226 214 210 205 195 186 185 179 167 163
218 215 215 204 193 197 202 197 185 196 209 189 169 180 171 164 175 78 119 225 223 108 132 151 129 116 130 161 181 164 107 79 99 260 53 116 213 38 211 229 234 204 205 214 217 294 51 183 178 172 190 206 167 22 329 176 178 193 131 79 72 72 53 25 279 279 314 279 239 194 157 221 273 249 172 183 214 231 230 216 207 201 190 182 180 174 165 161
216 213 212 200 196 203 208 220 224 206 200 181 154 160 153 145 161 153 201 222 243 111 99 124 155 153 151 158 186 183 149 74 71 122 135 156 347 346 271 285 305 258 228 234 233 186 122 150 195 184 193 161 118 53 10 74 133 150 132 88 82 94 70 52 254 99 305 265 225 190 184 199 273 250 171 194 215 223 228 211 190 184 178 177 173 169 165 161
215 211 208 200 200 201 200 217 220 203 201 190 153 143 141 120 46 192 204 240 329 178 128 138 151 151 163 160 167 190 174 126 130 146 153 155 149 287 237 147 40 337 338 292 273 182 140 144 132 137 68 119 108 68 12 14 87 133 127 107 100 41 44 35 256 140 226 257 218 189 193 195 233 246 199 203 182 205 234 189 168 173 172 171 168 166 164 161
214 210 206 202 201 199 198 203 199 194 196 182 157 142 144 129 223 225 214 89 354 196 151 151 161 161 176 172 168 179 168 148 158 163 157 159 176 192 197 193 162 157 246 239 231 234 222 204 165 109 299 174 136 102 30 354 332 150 130 121 121 175 344 300 216 184 224 252 269 200 192 203 236 246 255 258 186 63 312 171 163 167 167 168 166 163 163 160
214 209 204 203 202 201 202 198 191 190 181 165 158 151 145 167 204 217 211 193 222 193 125 140 166 169 175 181 172 163 163 155 161 167 158 159 182 203 214 220 191 187 218 192 190 200 251 230 171 157 288 196 174 174 181 242 209 182 157 148 159 170 224 239 216 221 241 248 299 348 163 222 277 254 238 246 223 68 2 120 158 162 164 167 163 159 160 161
215 208 204 203 203 204 201 194 192 188 172 160 161 157 159 194 213 208 215 221 213 65 107 141 158 165 175 184 157 149 161 163 160 164 159 161 187 205 209 224 216 215 166 161 190 178 209 273 185 175 181 178 191 204 185 142 167 195 177 170 185 172 195 224 201 223 255 278 310 330 146 185 228 248 231 242 91 62 358 22 135 145 150 150 149 153 158 164
215 207 203 201 203 206 200 194 195 186 171 162 175 175 177 199 212 210 217 216 191 105 129 143 146 160 180 191 154 153 142 143 168 171 174 181 199 199 196 209 209 204 172 186 206 168 207 263 176 163 146 165 190 213 169 124 156 210 173 189 219 197 201 237 208 178 135 344 284 216 229 220 206 228 146 88 66 68 7 33 120 131 139 141 150 160 163 169
211 205 201 196 201 205 198 195 194 184 171 166 184 191 196 203 208 209 203 193 185 146 136 151 155 169 179 169 175 185 97 87 163 169 198 206 226 217 206 200 194 196 190 183 182 159 196 263 119 110 111 162 189 217 181 153 169 179 165 201 211 142 177 228 285 61 99 275 258 180 241 286 286 262 167 134 111 105 76 205 144 144 147 151 163 170 168 172
206 204 201 195 199 202 198 196 191 180 172 179 193 200 211 217 220 209 182 188 183 152 150 183 182 177 181 164 179 187 157 109 163 171 181 192 240 222 211 202 184 196 203 191 212 204 163 229 266 108 123 203 317 300 171 60 97 137 181 203 122 52 39 158 274 346 165 253 260 184 222 237 200 249 186 148 170 181 202 208 170 159 163 169 175 174 173 171
202 201 209 206 203 199 197 196 189 179 176 189 198 207 217 223 226 212 197 198 178 162 188 219 195 174 185 183 177 174 167 158 173 184 174 178 228 201 193 202 183 192 204 198 223 279 135 194 270 343 53 324 331 60 120 357 59 127 197 229 107 98 242 141 197 256 213 249 278 212 220 221 203 215 178 181 205 204 200 198 186 182 180 182 178 172 174 168
206 193 222 213 204 198 195 194 188 181 194 192 197 211 216 222 224 214 207 205 191 184 202 220 209 191 199 197 172 163 177 178 167 180 188 186 219 189 179 192 188 186 193 190 201 227 145 190 252 317 352 99 45 177 176 213 230 69 347 313 92 142 182 164 194 226 190 241 276 251 232 228 212 193 175 194 209 198 188 190 198 196 186 185 180 175 177 174
219 207 257 202 197 194 191 188 184 185 199 193 199 211 213 221 222 220 231 221 205 206 211 214 211 209 210 204 180 163 184 190 173 185 203 182 195 200 178 179 181 178 180 187 198 159 108 200 219 309 335 125 164 210 192 188 189 178 204 221 192 162 110 156 243 212 185 232 262 268 264 245 204 186 181 191 203 195 185 190 200 198 187 184 182 179 180 178
221 236 256 176 184 186 181 181 187 189 194 196 205 216 213 207 204 211 230 243 241 260 248 222 216 220 220 211 197 166 174 195 183 186 212 195 199 214 179 173 171 162 161 182 203 185 155 196 191 168 229 209 213 215 201 195 191 188 193 194 191 182 156 213 250 210 183 230 229 256 270 256 231 290 180 182 192 191 187 192 196 191 185 185 185 183 182 179
237 241 186 166 176 174 169 186 196 179 201 203 203 215 198 170 194 201 213 232 249 272 277 252 227 228 226 216 210 173 159 193 193 191 210 209 210 209 175 174 169 156 153 172 202 195 136 131 202 210 202 208 220 197 167 172 145 188 227 197 181 188 179 195 231 208 178 233 230 247 276 270 323 22 36 139 186 187 186 187 186 189 187 183 183 182 182 182
242 239 166 170 174 169 164 212 189 180 213 204 199 216 178 186 205 192 195 212 222 231 237 243 236 234 237 227 217 190 173 189 199 202 212 213 215 206 175 175 168 159 159 161 188 171 97 123 207 243 251 76 45 52 49 37 50 16 266 202 184 202 199 201 221 174 168 227 197 179 259 265 328 12 21 8 347 146 172 178 174 181 184 178 181 181 179 181
232 239 251 179 177 171 174 213 185 195 215 203 211 217 209 221 210 197 196 199 205 214 221 231 232 232 238 236 239 211 189 205 213 209 211 208 216 211 178 173 164 163 173 176 171 167 167 171 152 178 264 271 347 357 3 1 167 209 229 210 206 210 199 214 234 113 252 232 180 197 248 245 285 356 39 8 0 63 120 165 164 168 177 181 181 178 177 176
209 224 310 192 183 178 191 203 182 192 206 206 214 211 213 227 211 207 208 202 204 207 215 228 226 230 249 256 284 268 224 228 228 216 216 216 236 324 184 175 171 179 188 178 170 166 171 174 158 181 226 234 233 227 200 187 188 219 221 205 213 210 195 205 212 209 242 227 167 214 245 247 334 331 150 251 79 99 111 147 159 167 174 176 176 177 177 173
191 216 217 209 206 204 212 200 182 184 195 199 210 212 213 219 216 207 205 210 215 211 220 233 214 217 246 248 250 249 234 230 229 218 218 215 223 341 288 180 181 185 168 148 150 148 147 185 192 201 217 228 238 237 168 149 164 201 208 200 208 211 202 201 207 220 228 210 201 229 238 258 271 226 220 228 192 188 195 168 173 176 173 176 176 174 172 169
195 213 191 175 227 236 237 215 189 188 190 189 191 198 206 215 221 201 195 211 215 209 220 230 204 200 216 220 229 239 235 234 235 233 223 208 208 345 4 45 184 179 139 149 155 139 127 209 211 213 223 232 240 243 195 162 180 201 202 200 206 207 202 202 216 224 202 161 245 237 211 244 250 209 210 228 201 196 201 189 194 181 168 170 161 158 162 163
204 210 195 185 183 211 229 221 197 196 191 184 187 198 201 209 213 201 195 210 216 210 212 221 217 215 213 209 217 227 228 228 231 233 227 204 158 146 292 331 257 132 89 158 177 141 147 218 220 216 229 240 244 246 225 194 197 202 197 203 205 201 202 206 217 225 196 193 246 240 186 229 245 213 209 218 197 202 203 190 184 161 152 158 155 159 166 164
201 225 219 206 204 196 206 206 200 206 198 182 191 208 204 206 210 207 196 197 214 213 206 212 219 218 216 212 210 218 219 216 223 228 223 208 174 154 187 248 243 127 102 146 211 163 164 227 230 216 231 245 246 244 237 227 227 222 208 208 206 203 207 209 215 223 215 221 244 246 230 244 249 213 213 211 192 197 187 157 157 157 159 164 165 171 174 173
199 208 194 195 231 218 204 196 186 204 207 187 195 209 208 214 215 209 199 190 201 206 205 218 224 218 215 215 213 222 222 214 222 228 216 211 210 182 190 203 159 127 155 174 209 278 195 227 234 189 231 252 248 239 237 238 240 243 239 229 222 216 212 212 218 224 220 231 243 247 254 259 247 178 203 200 156 132 132 149 165 172 171 168 172 180 180 180
268 291 339 152 199 203 204 190 164 189 209 191 195 199 206 224 220 208 210 209 208 208 200 216 228 222 214 219 219 226 230 225 232 241 208 196 216 214 212 199 154 148 187 189 162 166 192 213 169 114 214 252 250 233 233 242 248 254 255 245 234 224 212 210 219 219 212 225 239 239 246 254 239 149 139 158 139 144 164 172 171 175 175 170 174 182 183 186
252 321 329 194 206 198 195 192 174 195 203 184 198 200 196 219 218 201 217 226 222 227 215 217 231 231 221 226 225 229 237 237 242 254 137 150 216 278 215 194 164 163 175 176 153 157 181 201 202 164 214 255 255 203 211 234 242 245 247 244 236 226 217 218 223 222 214 215 227 228 235 250 232 148 157 175 170 178 181 173 169 169 169 173 176 178 185 193